Location: Mahannah Oil Field
(37.4664°N, 96.6003°W)
Time: 15:30:05
(UTC+00:00)

Vanguard 2 Rocket - Pass Details

Date: 23 January 2021
Orbit: 554 x 3325 km, 32.9° (Epoch: 06 March)

Event Time Altitude Azimuth Distance (km) Brightness Sun altitude
Rises 18:19:37 0° 201° (SSW) 7,270 12.4 33.1°
Reaches altitude 10° 18:26:38 10° 188° (S) 6,061 12.5 33.2°
Maximum altitude 18:38:29 21° 148° (SSE) 4,499 11.6 33.3°
Drops below altitude 10° 18:47:37 10° 105° (ESE) 4,594 10.7 33.2°
Sets 18:51:48 0° 90° (E) 5,153 10.7 33.2°
